Flag for Germany Weather past 2 weeks in Lübeck, Schleswig-Holstein, Germany

Now
50 °F

Light rain. Fog.


Feels Like: 44 °F
Forecast: 39 / 46 °F
Wind: 16 mph from Southwest

Location: Hamburg-Fuhlsbuettel

Current Time: Mar 29, 2015 at 3:32:10 AM

Latest Report: Mar 29, 2015 at 1:50 AM


Visibility: 2 mi

Pressure: 29.56 "Hg

Humidity: 94%

Dew point: 48 °F

Location of LübeckLocation

Historic Weather in Lübeck — Graph

°F

Lübeck temperature yesterday

Maximum temperature yesterday: 50 °F (at 2:20 PM)
Minimum temperature yesterday: 41 °F (at 1:50 AM)
Average temperature yesterday: 45 °F

Past Weeks' High & Low Weather Summary

 TemperatureHumidityPressure
High59 °F (Mar 17, 2:50 PM)100% (Mar 20, 6:20 AM)30.48 "Hg (Mar 20, 6:20 AM)
Low28 °F (Mar 20, 6:20 AM)27% (Mar 19, 2:50 PM)29.59 "Hg (Mar 29, 12:50 AM)
Average43 °F74%30.12 "Hg
* Reported Mar 14 1:20 AM — Mar 29 1:20 AM, Lübeck, Weather by CustomWeather, © 2015

Note: Actual official high and low records may vary slightly from our data, if they occured in-between our weather recording intervals... More about our weather records

Advertising

Lübeck weather history for previous 24 hours

 ConditionsComfort  
Time TempWeatherWind HumidityBarometerVisibility
1:20 AM
Sun, Mar 29
50 °FLight rain. Fog.15 mph94%29.59 "Hg3 mi
12:50 AM50 °FLight rain. Low clouds.20 mph94%29.59 "Hg3 mi
12:20 AM48 °FLow clouds.16 mph94%29.62 "Hg4 mi
11:50 PM
Sat, Mar 28
48 °FLow clouds.13 mph94%29.62 "Hg4 mi
11:20 PM48 °FLow clouds.15 mph94%29.65 "Hg4 mi
10:50 PM48 °FLight rain. Low clouds.13 mph87%29.68 "Hg4 mi
10:20 PM46 °FLight rain. Low clouds.15 mph93%29.68 "Hg4 mi
9:50 PM46 °FLow clouds.16 mph93%29.71 "Hg5 mi
9:20 PM46 °FLow clouds.17 mph87%29.74 "Hg5 mi
8:50 PM46 °FLight rain. Passing clouds.15 mph87%29.74 "Hg5 mi
8:20 PM46 °FLight rain. Passing clouds.16 mph87%29.77 "HgN/A
7:50 PM48 °FLight rain. Passing clouds.15 mph76%29.77 "HgN/A
7:20 PM48 °FPassing clouds.17 mph71%29.80 "HgN/A
6:50 PM48 °FLight rain. Overcast.15 mph71%29.80 "HgN/A
6:20 PM48 °FLight rain. More clouds than sun.17 mph71%29.83 "HgN/A
5:50 PM48 °FLight rain. More clouds than sun.16 mph71%29.83 "HgN/A
5:20 PM48 °FLight rain. More clouds than sun.14 mph66%29.86 "HgN/A
4:50 PM50 °FLight rain. More clouds than sun.14 mph58%29.86 "HgN/A
4:20 PM50 °FMore clouds than sun.14 mph54%29.89 "HgN/A
3:50 PM50 °FBroken clouds.17 mph50%29.92 "HgN/A
3:20 PM50 °FPartly sunny.16 mph50%29.92 "HgN/A
2:50 PM50 °FBroken clouds.15 mph54%29.95 "HgN/A
2:20 PM50 °FScattered clouds.16 mph54%29.95 "HgN/A
1:50 PM48 °FScattered clouds.15 mph54%29.98 "HgN/A
1:20 PM48 °FScattered clouds.15 mph54%29.98 "HgN/A
12:50 PM48 °FScattered clouds.14 mph54%30.01 "HgN/A
12:20 PM46 °FPartly sunny.14 mph62%30.04 "HgN/A
11:50 AM46 °FPartly sunny.14 mph62%30.04 "HgN/A
11:20 AM46 °FPartly sunny.13 mph62%30.07 "HgN/A
10:50 AM46 °FPartly sunny.12 mph57%30.07 "HgN/A
10:20 AM45 °FScattered clouds.12 mph71%30.09 "HgN/A
9:50 AM45 °FBroken clouds.9 mph81%30.09 "HgN/A
9:20 AM43 °FBroken clouds.9 mph87%30.09 "HgN/A
8:50 AM43 °FBroken clouds.8 mph87%30.12 "HgN/A
8:20 AM43 °FBroken clouds.9 mph87%30.12 "HgN/A
7:50 AM41 °FPartly sunny.8 mph93%30.12 "HgN/A
7:20 AM41 °FBroken clouds.6 mph93%30.12 "Hg5 mi
6:50 AM41 °FBroken clouds.7 mph93%30.12 "Hg4 mi
6:20 AM41 °FPartly sunny.8 mph93%30.12 "Hg4 mi
5:50 AM41 °FPassing clouds.8 mph93%30.12 "Hg4 mi
5:20 AM41 °FPassing clouds.6 mph93%30.12 "Hg5 mi
4:50 AM41 °FPartly cloudy.6 mph93%30.12 "Hg5 mi
4:20 AM41 °FPartly cloudy.5 mph93%30.12 "Hg5 mi
3:50 AM41 °FPassing clouds.5 mph93%30.12 "Hg6 mi
3:20 AM41 °FPassing clouds.3 mph93%30.12 "HgN/A
Weather by CustomWeather, © 2015

See weather overviewHow to use our weather pages